,,Stat6,,Stat2,,Stat8,,Stat9,,Stat10,,Wind1,,Wind1,
time,status,PA1M_AVG,status,PR1M_SUM,status,RH1M_AVG,status,SR1M_AVG,status,TA1M_AVG,status,W1dAve1m,status,W1sAve1m,
2007-09-27, 00:00:00,VALID,919.822,VALID,0,VALID,100,VALID,-0.0339617,VALID,17.4496,VALID,118,VALID,1.15879,
2007-09-27, 00:01:00,VALID,919.835,VALID,0,VALID,100,VALID,-0.0509425,VALID,17.4424,VALID,109,VALID,1.24982,
2007-09-27, 00:02:00,VALID,919.835,VALID,0,VALID,100,VALID,-0.0849042,VALID,17.498,VALID,110,VALID,1.38891,
2007-09-27, 00:03:00,VALID,919.838,VALID,0,VALID,100,VALID,-0.0339617,VALID,17.5142,VALID,102,VALID,1.34611,
2007-09-27, 00:04:00,VALID,919.855,VALID,0,VALID,100,VALID,-0.0339617,VALID,17.4978,VALID,110,VALID,1.32031,
2007-09-27, 00:05:00,VALID,919.891,VALID,0,VALID,100,VALID,-0.0169808,VALID,17.4788,VALID,121,VALID,1.3447,
2007-09-27, 00:06:00,VALID,919.909,VALID,0,VALID,100,VALID,-0.0339617,VALID,17.4621,VALID,132,VALID,1.52983,
2007-09-27, 00:07:00,VALID,919.899,VALID,0,VALID,100,VALID,0,VALID,17.4327,VALID,134,VALID,1.36192,
2007-09-27, 00:08:00,VALID,919.906,VALID,0,VALID,100,VALID,-0.0169808,VALID,17.4005,VALID,123,VALID,1.37064,
2007-09-27, 00:09:00,VALID,919.867,VALID,0,VALID,100,VALID,-0.0509425,VALID,17.3646,VALID,121,VALID,1.17406,
2007-09-27, 00:10:00,VALID,919.852,VALID,0,VALID,100,VALID,-0.0339617,VALID,17.3255,VALID,120,VALID,1.00604,
2007-09-27, 00:11:00,VALID,919.819,VALID,0,VALID,100,VALID,-0.0339617,VALID,17.3223,VALID,127,VALID,1.33213,
2007-09-27, 00:12:00,VALID,919.802,VALID,0,VALID,100,VALID,-0.0169808,VALID,17.3327,VALID,127,VALID,1.22692,
2007-09-27, 00:13:00,VALID,919.77,VALID,0,VALID,100,VALID,-0.0169808,VALID,17.316,VALID,133,VALID,1.17461,
2007-09-27, 00:14:00,VALID,919.74,VALID,0,VALID,100,VALID,-0.0339617,VALID,17.3065,VALID,136,VALID,1.21748,
2007-09-27, 00:15:00,VALID,919.704,VALID,0,VALID,100,VALID,-0.0339617,VALID,17.2938,VALID,137,VALID,1.02716,
2007-09-27, 00:16:00,VALID,919.682,VALID,0,VALID,100,VALID,0,VALID,17.2641,VALID,146,VALID,0.934048,
2007-09-27, 00:17:00,VALID,919.658,VALID,0,VALID,100,VALID,-0.0169808,VALID,17.2641,VALID,135,VALID,0.797852,
2007-09-27, 00:18:00,VALID,919.629,VALID,0,VALID,100,VALID,-0.0169808,VALID,17.2415,VALID,135,VALID,0.910457,
2007-09-27, 00:19:00,VALID,919.613,VALID,0,VALID,100,VALID,-0.0169808,VALID,17.222,VALID,135,VALID,1.01308,
2007-09-27, 00:20:00,VALID,919.605,VALID,0,VALID,100,VALID,0,VALID,17.2188,VALID,135,VALID,0.985795,
2007-09-27, 00:21:00,VALID,919.588,VALID,0,VALID,100,VALID,-0.0339617,VALID,17.2058,VALID,135,VALID,0.926525,
2007-09-27, 00:22:00,VALID,919.566,VALID,0,VALID,100,VALID,0,VALID,17.1963,VALID,122,VALID,0.95419,
2007-09-27, 00:23:00,VALID,919.542,VALID,0,VALID,100,VALID,-0.0339617,VALID,17.1833,VALID,119,VALID,1.10781,
2007-09-27, 00:24:00,VALID,919.506,VALID,0,VALID,100,VALID,0,VALID,17.193,VALID,118,VALID,1.26871,
2007-09-27, 00:25:00,VALID,919.495,VALID,0,VALID,100,VALID,-0.0169808,VALID,17.1896,VALID,115,VALID,1.32564,
2007-09-27, 00:26:00,VALID,919.489,VALID,0,VALID,100,VALID,0,VALID,17.1896,VALID,121,VALID,1.21441,
2007-09-27, 00:27:00,VALID,919.492,VALID,0,VALID,100,VALID,-0.0169808,VALID,17.1993,VALID,138,VALID,1.04249,
2007-09-27, 00:28:00,VALID,919.503,VALID,0,VALID,100,VALID,0,VALID,17.2157,VALID,148,VALID,1.11719,
2007-09-27, 00:29:00,VALID,919.507,VALID,0,VALID,100,VALID,-0.0169808,VALID,17.1993,VALID,151,VALID,1.11559,
2007-09-27, 00:30:00,VALID,919.501,VALID,0,VALID,100,VALID,-0.0509425,VALID,17.1898,VALID,153,VALID,0.589658,
2007-09-27, 00:31:00,VALID,919.49,VALID,0,VALID,100,VALID,-0.0339617,VALID,17.1833,VALID,128,VALID,0.455556,
2007-09-27, 00:32:00,VALID,919.458,VALID,0,VALID,100,VALID,-0.0339617,VALID,17.1541,VALID,98,VALID,0.766158,
2007-09-27, 00:33:00,VALID,919.424,VALID,0,VALID,100,VALID,-0.0849042,VALID,17.1544,VALID,113,VALID,0.996094,
2007-09-27, 00:34:00,VALID,919.399,VALID,0,VALID,100,VALID,-0.0339617,VALID,17.1768,VALID,128,VALID,1.25109,
2007-09-27, 00:35:00,VALID,919.393,VALID,0,VALID,100,VALID,-0.0169808,VALID,17.193,VALID,137,VALID,1.23547,
2007-09-27, 00:36:00,VALID,919.368,VALID,0,VALID,100,VALID,0.0169808,VALID,17.1861,VALID,147,VALID,1.09793,
2007-09-27, 00:37:00,VALID,919.36,VALID,0,VALID,100,VALID,0.0169808,VALID,17.1892,VALID,146,VALID,1.26634,
2007-09-27, 00:38:00,VALID,919.348,VALID,0,VALID,100,VALID,0.0169808,VALID,17.1991,VALID,140,VALID,1.29865,
2007-09-27, 00:39:00,VALID,919.338,VALID,0,VALID,100,VALID,-0.0169808,VALID,17.1991,VALID,135,VALID,1.37393,
2007-09-27, 00:40:00,VALID,919.343,VALID,0,VALID,100,VALID,0.0169808,VALID,17.1956,VALID,133,VALID,1.34695,
2007-09-27, 00:41:00,VALID,919.334,VALID,0,VALID,100,VALID,0,VALID,17.1859,VALID,130,VALID,1.59449,
2007-09-27, 00:42:00,VALID,919.324,VALID,0,VALID,100,VALID,0,VALID,17.1959,VALID,127,VALID,1.51328,
2007-09-27, 00:43:00,VALID,919.312,VALID,0,VALID,100,VALID,0.0339617,VALID,17.1794,VALID,132,VALID,1.42351,
2007-09-27, 00:44:00,VALID,919.304,VALID,0,VALID,100,VALID,0.0169808,VALID,17.1766,VALID,134,VALID,1.41655,
2007-09-27, 00:45:00,VALID,919.296,VALID,0,VALID,100,VALID,0.0169808,VALID,17.1533,VALID,140,VALID,1.55541,
2007-09-27, 00:46:00,VALID,919.311,VALID,0,VALID,100,VALID,0,VALID,17.1632,VALID,140,VALID,1.65678,
2007-09-27, 00:47:00,VALID,919.29,VALID,0,VALID,100,VALID,-0.0169808,VALID,17.1444,VALID,142,VALID,1.42788,
2007-09-27, 00:48:00,VALID,919.271,VALID,0,VALID,100,VALID,-0.0169808,VALID,17.1379,VALID,138,VALID,1.46573,
2007-09-27, 00:49:00,VALID,919.249,VALID,0,VALID,100,VALID,-0.0169808,VALID,17.1181,VALID,133,VALID,1.21697,
2007-09-27, 00:50:00,VALID,919.215,VALID,0,VALID,100,VALID,0,VALID,17.0954,VALID,118,VALID,1.22435,
2007-09-27, 00:51:00,VALID,919.201,VALID,0,VALID,100,VALID,0,VALID,17.0891,VALID,124,VALID,1.42115,
2007-09-27, 00:52:00,VALID,919.163,VALID,0,VALID,100,VALID,0,VALID,17.0988,VALID,124,VALID,1.79469,
2007-09-27, 00:53:00,VALID,919.139,VALID,0,VALID,100,VALID,-0.0169808,VALID,17.1083,VALID,130,VALID,1.66441,
2007-09-27, 00:54:00,VALID,919.117,VALID,0,VALID,100,VALID,0,VALID,17.0986,VALID,131,VALID,1.70113,
2007-09-27, 00:55:00,VALID,919.109,VALID,0,VALID,100,VALID,0,VALID,17.0891,VALID,130,VALID,1.60766,
2007-09-27, 00:56:00,VALID,919.106,VALID,0,VALID,100,VALID,0.0169808,VALID,17.0759,VALID,131,VALID,1.60366,
2007-09-27, 00:57:00,VALID,919.109,VALID,0,VALID,100,VALID,0,VALID,17.05,VALID,132,VALID,1.55578,
2007-09-27, 00:58:00,VALID,919.125,VALID,0,VALID,100,VALID,0,VALID,17.0176,VALID,131,VALID,1.56641,
2007-09-27, 00:59:00,VALID,919.123,VALID,0,VALID,100,VALID,0.0169808,VALID,16.9916,VALID,133,VALID,1.66983,
2007-09-27, 01:00:00,VALID,919.13,VALID,0,VALID,100,VALID,0,VALID,16.9724,VALID,140,VALID,1.35882,
2007-09-27, 01:01:00,VALID,919.128,VALID,0,VALID,100,VALID,0,VALID,16.9556,VALID,144,VALID,1.21366,
2007-09-27, 01:02:00,VALID,919.12,VALID,0,VALID,100,VALID,-0.0169808,VALID,16.9497,VALID,149,VALID,1.1262,
2007-09-27, 01:03:00,VALID,919.103,VALID,0,VALID,100,VALID,-0.0339617,VALID,16.9562,VALID,154,VALID,1.3038,
2007-09-27, 01:04:00,VALID,919.105,VALID,0,VALID,100,VALID,-0.0339617,VALID,16.9592,VALID,156,VALID,1.07776,
2007-09-27, 01:05:00,VALID,919.101,VALID,0,VALID,100,VALID,0,VALID,16.9724,VALID,152,VALID,1.19893,
2007-09-27, 01:06:00,VALID,919.111,VALID,0,VALID,100,VALID,-0.0169808,VALID,16.9655,VALID,152,VALID,1.15968,
2007-09-27, 01:07:00,VALID,919.124,VALID,0,VALID,100,VALID,0.0509425,VALID,16.9916,VALID,148,VALID,1.27102,
2007-09-27, 01:08:00,VALID,919.118,VALID,0,VALID,100,VALID,0.0169808,VALID,17.0176,VALID,143,VALID,1.2818,
2007-09-27, 01:09:00,VALID,919.134,VALID,0,VALID,100,VALID,0,VALID,17.04,VALID,142,VALID,1.46075,
2007-09-27, 01:10:00,VALID,919.125,VALID,0,VALID,100,VALID,0.0169808,VALID,17.0856,VALID,140,VALID,1.29965,
2007-09-27, 01:11:00,VALID,919.126,VALID,0,VALID,100,VALID,0.0169808,VALID,17.115,VALID,139,VALID,1.37767,
2007-09-27, 01:12:00,VALID,919.114,VALID,0,VALID,100,VALID,0,VALID,17.1209,VALID,135,VALID,1.0705,
2007-09-27, 01:13:00,VALID,919.103,VALID,0,VALID,100,VALID,0.0169808,VALID,17.131,VALID,144,VALID,0.923692,
2007-09-27, 01:14:00,VALID,919.081,VALID,0,VALID,100,VALID,0.0169808,VALID,17.1109,VALID,145,VALID,0.969531,
2007-09-27, 01:15:00,VALID,919.066,VALID,0,VALID,100,VALID,-0.0169808,VALID,17.0984,VALID,149,VALID,1.1151,
2007-09-27, 01:16:00,VALID,919.06,VALID,0,VALID,100,VALID,0,VALID,17.0757,VALID,147,VALID,1.12101,
2007-09-27, 01:17:00,VALID,919.057,VALID,0,VALID,100,VALID,0,VALID,17.0597,VALID,139,VALID,1.21298,
2007-09-27, 01:18:00,VALID,919.052,VALID,0,VALID,100,VALID,0,VALID,17.0532,VALID,129,VALID,0.820703,
2007-09-27, 01:19:00,VALID,919.038,VALID,0,VALID,100,VALID,-0.0339617,VALID,17.0245,VALID,142,VALID,1.04668,
2007-09-27, 01:20:00,VALID,919.036,VALID,0,VALID,100,VALID,-0.0169808,VALID,17.0178,VALID,141,VALID,1.2474,
2007-09-27, 01:21:00,VALID,919.024,VALID,0,VALID,100,VALID,0,VALID,17.021,VALID,143,VALID,1.21984,
2007-09-27, 01:22:00,VALID,919.006,VALID,0,VALID,100,VALID,-0.0339617,VALID,17.0243,VALID,137,VALID,1.27292,
2007-09-27, 01:23:00,VALID,918.992,VALID,0,VALID,100,VALID,0.0169808,VALID,17.0307,VALID,133,VALID,1.33233,
2007-09-27, 01:24:00,VALID,918.972,VALID,0,VALID,100,VALID,0.0169808,VALID,17.04,VALID,124,VALID,1.12012,
2007-09-27, 01:25:00,VALID,918.959,VALID,0,VALID,100,VALID,0.0339617,VALID,17.0206,VALID,111,VALID,1.24092,
2007-09-27, 01:26:00,VALID,918.918,VALID,0,VALID,100,VALID,0.0169808,VALID,17.0016,VALID,113,VALID,1.50298,
2007-09-27, 01:27:00,VALID,918.914,VALID,0,VALID,100,VALID,0.0169808,VALID,16.9819,VALID,119,VALID,1.37954,
2007-09-27, 01:28:00,VALID,918.883,VALID,0,VALID,100,VALID,0.0169808,VALID,16.9594,VALID,112,VALID,1.04364,
2007-09-27, 01:29:00,VALID,918.863,VALID,0,VALID,100,VALID,0,VALID,16.9396,VALID,115,VALID,1.11664,
2007-09-27, 01:30:00,VALID,918.848,VALID,0,VALID,100,VALID,0.0169808,VALID,16.9363,VALID,116,VALID,1.17292,
2007-09-27, 01:31:00,VALID,918.831,VALID,0,VALID,100,VALID,-0.0169808,VALID,16.9331,VALID,119,VALID,1.32522,
2007-09-27, 01:32:00,VALID,918.83,VALID,0,VALID,100,VALID,0.0509425,VALID,16.9527,VALID,110,VALID,1.16202,
2007-09-27, 01:33:00,VALID,918.836,VALID,0,VALID,100,VALID,0.0509425,VALID,16.9393,VALID,117,VALID,1.33613,
2007-09-27, 01:34:00,VALID,918.831,VALID,0,VALID,100,VALID,0.0339617,VALID,16.9393,VALID,113,VALID,1.32051,
2007-09-27, 01:35:00,VALID,918.833,VALID,0,VALID,100,VALID,0.0169808,VALID,16.9428,VALID,114,VALID,1.47347,
2007-09-27, 01:36:00,VALID,918.842,VALID,0,VALID,100,VALID,0,VALID,16.9229,VALID,115,VALID,1.09659,
2007-09-27, 01:37:00,VALID,918.831,VALID,0,VALID,100,VALID,0,VALID,16.9141,VALID,103,VALID,1.44665,
2007-09-27, 01:38:00,VALID,918.824,VALID,0,VALID,100,VALID,-0.0169808,VALID,16.9009,VALID,94,VALID,1.12091,
2007-09-27, 01:39:00,VALID,918.83,VALID,0,VALID,100,VALID,0,VALID,16.8557,VALID,96,VALID,1.13077,
2007-09-27, 01:40:00,VALID,918.828,VALID,0,VALID,100,VALID,0,VALID,16.8198,VALID,105,VALID,1.18278,
2007-09-27, 01:41:00,VALID,918.838,VALID,0,VALID,100,VALID,0.0339617,VALID,16.79,VALID,108,VALID,1.32102,
2007-09-27, 01:42:00,VALID,918.835,VALID,0,VALID,100,VALID,0.0169808,VALID,16.7678,VALID,112,VALID,1.30611,
2007-09-27, 01:43:00,VALID,918.824,VALID,0,VALID,100,VALID,0.0169808,VALID,16.7449,VALID,116,VALID,1.22475,
2007-09-27, 01:44:00,VALID,918.823,VALID,0,VALID,100,VALID,0,VALID,16.7159,VALID,115,VALID,1.10919,
2007-09-27, 01:45:00,VALID,918.816,VALID,0,VALID,100,VALID,0,VALID,16.7189,VALID,118,VALID,1.03201,
2007-09-27, 01:46:00,VALID,918.793,VALID,0,VALID,100,VALID,0.0169808,VALID,16.7254,VALID,122,VALID,0.924183,
2007-09-27, 01:47:00,VALID,918.775,VALID,0,VALID,100,VALID,0.0169808,VALID,16.7323,VALID,121,VALID,0.90767,
2007-09-27, 01:48:00,VALID,918.765,VALID,0,VALID,100,VALID,0,VALID,16.7325,VALID,129,VALID,0.896835,
2007-09-27, 01:49:00,VALID,918.77,VALID,0,VALID,100,VALID,-0.0169808,VALID,16.7161,VALID,146,VALID,0.865057,
2007-09-27, 01:50:00,VALID,918.779,VALID,0,VALID,100,VALID,-0.0339617,VALID,16.7127,VALID,154,VALID,0.798874,
2007-09-27, 01:51:00,VALID,918.768,VALID,0,VALID,100,VALID,0,VALID,16.6963,VALID,142,VALID,0.733984,
2007-09-27, 01:52:00,VALID,918.768,VALID,0,VALID,100,VALID,0,VALID,16.6837,VALID,133,VALID,0.975361,
2007-09-27, 01:53:00,VALID,918.756,VALID,0,VALID,100,VALID,-0.0169808,VALID,16.6641,VALID,110,VALID,1.0002,
2007-09-27, 01:54:00,VALID,918.733,VALID,0,VALID,100,VALID,0,VALID,16.6513,VALID,108,VALID,0.873326,
2007-09-27, 01:55:00,VALID,918.687,VALID,0,VALID,100,VALID,-0.0169808,VALID,16.5992,VALID,99,VALID,1.13374,
2007-09-27, 01:56:00,VALID,918.665,VALID,0,VALID,100,VALID,-0.0169808,VALID,16.6061,VALID,114,VALID,1.11142,
2007-09-27, 01:57:00,VALID,918.632,VALID,0,VALID,100,VALID,-0.0169808,VALID,16.6191,VALID,123,VALID,1.3746,
2007-09-27, 01:58:00,VALID,918.602,VALID,0,VALID,100,VALID,0.0169808,VALID,16.6515,VALID,117,VALID,1.2962,
2007-09-27, 01:59:00,VALID,918.579,VALID,0,VALID,100,VALID,-0.0169808,VALID,16.6386,VALID,110,VALID,1.3133,
2007-09-27, 02:00:00,VALID,918.562,VALID,0,VALID,100,VALID,-0.0169808,VALID,16.6448,VALID,116,VALID,1.32304,
2007-09-27, 02:01:00,VALID,918.552,VALID,0,VALID,100,VALID,0,VALID,16.6319,VALID,112,VALID,1.25076,
2007-09-27, 02:02:00,VALID,918.539,VALID,0,VALID,100,VALID,-0.0169808,VALID,16.6223,VALID,113,VALID,1.31783,
2007-09-27, 02:03:00,VALID,918.526,VALID,0,VALID,100,VALID,0.0169808,VALID,16.6061,VALID,106,VALID,1.26308,
2007-09-27, 02:04:00,VALID,918.52,VALID,0,VALID,100,VALID,-0.0169808,VALID,16.5703,VALID,109,VALID,1.38984,
2007-09-27, 02:05:00,VALID,918.518,VALID,0,VALID,100,VALID,0.0169808,VALID,16.564,VALID,121,VALID,1.51235,
2007-09-27, 02:06:00,VALID,918.503,VALID,0,VALID,100,VALID,0.0169808,VALID,16.5407,VALID,128,VALID,1.38467,
2007-09-27, 02:07:00,VALID,918.495,VALID,0,VALID,100,VALID,-0.0169808,VALID,16.5476,VALID,135,VALID,1.6896,
2007-09-27, 02:08:00,VALID,918.499,VALID,0,VALID,100,VALID,0.0169808,VALID,16.5478,VALID,135,VALID,1.70658,
2007-09-27, 02:09:00,VALID,918.494,VALID,0,VALID,100,VALID,0,VALID,16.5539,VALID,129,VALID,1.46342,
2007-09-27, 02:10:00,VALID,918.472,VALID,0,VALID,100,VALID,-0.0169808,VALID,16.5608,VALID,120,VALID,1.18415,
2007-09-27, 02:11:00,VALID,918.452,VALID,0,VALID,100,VALID,0.0169808,VALID,16.5407,VALID,125,VALID,1.2224,
2007-09-27, 02:12:00,VALID,918.438,VALID,0,VALID,100,VALID,0.0169808,VALID,16.5636,VALID,126,VALID,1.15729,
2007-09-27, 02:13:00,VALID,918.436,VALID,0,VALID,100,VALID,-0.0169808,VALID,16.567,VALID,128,VALID,1.08743,
2007-09-27, 02:14:00,VALID,918.444,VALID,0,VALID,100,VALID,-0.0169808,VALID,16.5575,VALID,130,VALID,0.987216,
2007-09-27, 02:15:00,VALID,918.448,VALID,0,VALID,100,VALID,-0.0339617,VALID,16.5606,VALID,130,VALID,0.992759,
2007-09-27, 02:16:00,VALID,918.477,VALID,0,VALID,100,VALID,0,VALID,16.5768,VALID,135,VALID,1.06374,
2007-09-27, 02:17:00,VALID,918.475,VALID,0,VALID,100,VALID,-0.0169808,VALID,16.5865,VALID,130,VALID,1.46823,
2007-09-27, 02:18:00,VALID,918.475,VALID,0,VALID,100,VALID,0,VALID,16.6124,VALID,121,VALID,1.44201,
2007-09-27, 02:19:00,VALID,918.468,VALID,0,VALID,100,VALID,0,VALID,16.6254,VALID,118,VALID,1.33672,
2007-09-27, 02:20:00,VALID,918.439,VALID,0,VALID,100,VALID,-0.0339617,VALID,16.6292,VALID,119,VALID,1.38184,
2007-09-27, 02:21:00,VALID,918.419,VALID,0,VALID,100,VALID,0,VALID,16.6481,VALID,121,VALID,1.37609,
2007-09-27, 02:22:00,VALID,918.385,VALID,0,VALID,100,VALID,-0.101885,VALID,16.6686,VALID,112,VALID,1.11097,
2007-09-27, 02:23:00,VALID,918.362,VALID,0,VALID,100,VALID,-0.0849042,VALID,16.6455,VALID,97,VALID,1.08739,
2007-09-27, 02:24:00,VALID,918.348,VALID,0,VALID,100,VALID,-0.0849042,VALID,16.6169,VALID,92,VALID,0.992188,
2007-09-27, 02:25:00,VALID,918.35,VALID,0,VALID,100,VALID,-0.135847,VALID,16.5683,VALID,109,VALID,1.17969,
2007-09-27, 02:26:00,VALID,918.341,VALID,0,VALID,100,VALID,-0.101885,VALID,16.5555,VALID,121,VALID,1.31215,
2007-09-27, 02:27:00,VALID,918.335,VALID,0,VALID,100,VALID,-0.0849042,VALID,16.5456,VALID,117,VALID,0.958394,
2007-09-27, 02:28:00,VALID,918.323,VALID,0,VALID,100,VALID,-0.101885,VALID,16.51,VALID,123,VALID,1.25408,
2007-09-27, 02:29:00,VALID,918.295,VALID,0,VALID,100,VALID,-0.101885,VALID,16.5035,VALID,132,VALID,1.32674,
2007-09-27, 02:30:00,VALID,918.269,VALID,0,VALID,100,VALID,-0.118866,VALID,16.5164,VALID,130,VALID,1.49126,
2007-09-27, 02:31:00,VALID,918.245,VALID,0,VALID,100,VALID,-0.101885,VALID,16.5458,VALID,123,VALID,1.31694,
2007-09-27, 02:32:00,VALID,918.207,VALID,0,VALID,100,VALID,-0.118866,VALID,16.5521,VALID,120,VALID,1.4418,
2007-09-27, 02:33:00,VALID,918.172,VALID,0,VALID,100,VALID,-0.0849042,VALID,16.5711,VALID,121,VALID,1.50763,
2007-09-27, 02:34:00,VALID,918.157,VALID,0,VALID,100,VALID,-0.101885,VALID,16.5977,VALID,125,VALID,1.55736,
2007-09-27, 02:35:00,VALID,918.136,VALID,0,VALID,100,VALID,-0.118866,VALID,16.6039,VALID,132,VALID,1.51696,
2007-09-27, 02:36:00,VALID,918.131,VALID,0,VALID,100,VALID,-0.135847,VALID,16.6232,VALID,130,VALID,1.27188,
2007-09-27, 02:37:00,VALID,918.119,VALID,0,VALID,100,VALID,0,VALID,16.661,VALID,132,VALID,1.23238,
2007-09-27, 02:38:00,VALID,918.097,VALID,0,VALID,100,VALID,-0.0169808,VALID,16.6902,VALID,147,VALID,0.937686,
2007-09-27, 02:39:00,VALID,918.088,VALID,0,VALID,100,VALID,-0.0169808,VALID,16.687,VALID,139,VALID,0.992369,
2007-09-27, 02:40:00,VALID,918.074,VALID,0,VALID,100,VALID,0,VALID,16.6742,VALID,145,VALID,0.827381,
2007-09-27, 02:41:00,VALID,918.063,VALID,0,VALID,100,VALID,-0.0169808,VALID,16.6511,VALID,140,VALID,0.778392,
2007-09-27, 02:42:00,VALID,918.049,VALID,0,VALID,100,VALID,-0.0509425,VALID,16.6485,VALID,133,VALID,0.808681,
2007-09-27, 02:43:00,VALID,918.045,VALID,0,VALID,100,VALID,-0.0339617,VALID,16.6254,VALID,133,VALID,1.11217,
2007-09-27, 02:44:00,VALID,918.054,VALID,0,VALID,100,VALID,0,VALID,16.6254,VALID,137,VALID,1.25208,
2007-09-27, 02:45:00,VALID,918.064,VALID,0,VALID,100,VALID,0,VALID,16.6353,VALID,128,VALID,1.33866,
2007-09-27, 02:46:00,VALID,918.068,VALID,0,VALID,100,VALID,0,VALID,16.6319,VALID,128,VALID,1.36719,
2007-09-27, 02:47:00,VALID,918.057,VALID,0,VALID,100,VALID,0,VALID,16.6548,VALID,139,VALID,1.77202,
2007-09-27, 02:48:00,VALID,918.056,VALID,0,VALID,100,VALID,0,VALID,16.6937,VALID,147,VALID,1.80313,
2007-09-27, 02:49:00,VALID,918.056,VALID,0,VALID,100,VALID,0,VALID,16.7516,VALID,149,VALID,1.74455,
2007-09-27, 02:50:00,VALID,918.033,VALID,0,VALID,100,VALID,0,VALID,16.7937,VALID,147,VALID,1.49121,
2007-09-27, 02:51:00,VALID,918.023,VALID,0,VALID,100,VALID,-0.0509425,VALID,16.8103,VALID,144,VALID,1.23491,
2007-09-27, 02:52:00,VALID,918.014,VALID,0,VALID,100,VALID,-0.0849042,VALID,16.798,VALID,145,VALID,1.38663,
2007-09-27, 02:53:00,VALID,917.994,VALID,0,VALID,100,VALID,-0.0849042,VALID,16.7617,VALID,145,VALID,1.49673,
2007-09-27, 02:54:00,VALID,917.995,VALID,0,VALID,100,VALID,-0.101885,VALID,16.7619,VALID,138,VALID,1.36133,
2007-09-27, 02:55:00,VALID,917.973,VALID,0,VALID,100,VALID,-0.0849042,VALID,16.7617,VALID,148,VALID,1.28666,
2007-09-27, 02:56:00,VALID,917.975,VALID,0,VALID,100,VALID,-0.0679233,VALID,16.752,VALID,138,VALID,0.985973,
2007-09-27, 02:57:00,VALID,917.984,VALID,0,VALID,100,VALID,-0.101885,VALID,16.752,VALID,143,VALID,1.00618,
2007-09-27, 02:58:00,VALID,917.992,VALID,0,VALID,100,VALID,-0.0509425,VALID,16.7455,VALID,146,VALID,0.909801,
2007-09-27, 02:59:00,VALID,917.999,VALID,0,VALID,100,VALID,-0.0679233,VALID,16.7263,VALID,146,VALID,0.702753,
2007-09-27, 03:00:00,VALID,918.006,VALID,0,VALID,100,VALID,-0.0679233,VALID,16.7196,VALID,152,VALID,0.980291,
2007-09-27, 03:01:00,VALID,918.01,VALID,0,VALID,100,VALID,-0.0679233,VALID,16.7358,VALID,152,VALID,0.964367,
2007-09-27, 03:02:00,VALID,918.005,VALID,0,VALID,100,VALID,-0.0679233,VALID,16.7423,VALID,140,VALID,1.12221,
2007-09-27, 03:03:00,VALID,918.007,VALID,0,VALID,100,VALID,-0.0509425,VALID,16.7682,VALID,133,VALID,0.993075,
2007-09-27, 03:04:00,VALID,917.985,VALID,0,VALID,100,VALID,-0.0849042,VALID,16.7619,VALID,120,VALID,0.8879,
2007-09-27, 03:05:00,VALID,917.963,VALID,0,VALID,99.9725,VALID,-0.101885,VALID,16.7425,VALID,119,VALID,0.641124,
2007-09-27, 03:06:00,VALID,917.951,VALID,0,VALID,99.7943,VALID,-0.0849042,VALID,16.6677,VALID,104,VALID,0.603981,
2007-09-27, 03:07:00,VALID,917.928,VALID,0,VALID,100,VALID,0.0169808,VALID,16.6438,VALID,124,VALID,0.818638,
2007-09-27, 03:08:00,VALID,917.906,VALID,0,VALID,100,VALID,0.0169808,VALID,16.6505,VALID,132,VALID,0.828819,
2007-09-27, 03:09:00,VALID,917.889,VALID,0,VALID,100,VALID,0.0169808,VALID,16.6507,VALID,136,VALID,1.19975,
2007-09-27, 03:10:00,VALID,917.868,VALID,0,VALID,100,VALID,0,VALID,16.6537,VALID,134,VALID,1.07483,
2007-09-27, 03:11:00,VALID,917.855,VALID,0,VALID,100,VALID,-0.0169808,VALID,16.6438,VALID,141,VALID,1.05759,
2007-09-27, 03:12:00,VALID,917.836,VALID,0,VALID,100,VALID,0.0169808,VALID,16.647,VALID,134,VALID,1.13377,
2007-09-27, 03:13:00,VALID,917.839,VALID,0,VALID,100,VALID,0.0169808,VALID,16.6535,VALID,127,VALID,1.44204,
2007-09-27, 03:14:00,VALID,917.835,VALID,0,VALID,100,VALID,0.0509425,VALID,16.6697,VALID,129,VALID,1.1553,
2007-09-27, 03:15:00,VALID,917.841,VALID,0,VALID,100,VALID,0.0509425,VALID,16.6533,VALID,128,VALID,1.08884,
2007-09-27, 03:16:00,VALID,917.835,VALID,0,VALID,100,VALID,0.0509425,VALID,16.6565,VALID,127,VALID,1.2282,
2007-09-27, 03:17:00,VALID,917.836,VALID,0,VALID,100,VALID,0.0339617,VALID,16.6729,VALID,124,VALID,1.14099,
2007-09-27, 03:18:00,VALID,917.823,VALID,0,VALID,100,VALID,0.0339617,VALID,16.6762,VALID,125,VALID,1.18105,
2007-09-27, 03:19:00,VALID,917.824,VALID,0,VALID,100,VALID,0,VALID,16.6863,VALID,124,VALID,1.28487,
2007-09-27, 03:20:00,VALID,917.816,VALID,0,VALID,100,VALID,0,VALID,16.6863,VALID,125,VALID,1.23586,
2007-09-27, 03:21:00,VALID,917.81,VALID,0,VALID,100,VALID,0,VALID,16.6636,VALID,130,VALID,1.34091,
2007-09-27, 03:22:00,VALID,917.815,VALID,0,VALID,100,VALID,-0.0849042,VALID,16.6552,VALID,139,VALID,1.27474,
2007-09-27, 03:23:00,VALID,917.825,VALID,0,VALID,100,VALID,-0.0849042,VALID,16.6513,VALID,135,VALID,1.38398,
2007-09-27, 03:24:00,VALID,917.836,VALID,0,VALID,100,VALID,-0.0339617,VALID,16.6742,VALID,136,VALID,1.39583,
2007-09-27, 03:25:00,VALID,917.848,VALID,0,VALID,100,VALID,-0.101885,VALID,16.6872,VALID,133,VALID,1.40195,
2007-09-27, 03:26:00,VALID,917.854,VALID,0,VALID,100,VALID,-0.0169808,VALID,16.7293,VALID,130,VALID,1.46076,
2007-09-27, 03:27:00,VALID,917.864,VALID,0,VALID,99.9977,VALID,-0.0509425,VALID,16.765,VALID,128,VALID,1.29306,
2007-09-27, 03:28:00,VALID,917.858,VALID,0,VALID,99.9288,VALID,-0.101885,VALID,16.7874,VALID,122,VALID,1.25854,
2007-09-27, 03:29:00,VALID,917.854,VALID,0,VALID,99.7879,VALID,-0.0339617,VALID,16.8039,VALID,121,VALID,1.45703,
2007-09-27, 03:30:00,VALID,917.87,VALID,0,VALID,99.6658,VALID,-0.0679233,VALID,16.8198,VALID,125,VALID,1.56441,
2007-09-27, 03:31:00,VALID,917.87,VALID,0,VALID,99.4585,VALID,-0.0849042,VALID,16.846,VALID,128,VALID,1.54392,
2007-09-27, 03:32:00,VALID,917.877,VALID,0,VALID,99.2678,VALID,-0.0679233,VALID,16.8432,VALID,134,VALID,1.40137,
2007-09-27, 03:33:00,VALID,917.907,VALID,0,VALID,99.2233,VALID,-0.101885,VALID,16.7974,VALID,142,VALID,1.16328,
2007-09-27, 03:34:00,VALID,917.921,VALID,0,VALID,99.3225,VALID,-0.0509425,VALID,16.7682,VALID,135,VALID,1.5362,
2007-09-27, 03:35:00,VALID,917.951,VALID,0,VALID,99.5005,VALID,-0.0849042,VALID,16.7425,VALID,131,VALID,1.48196,
2007-09-27, 03:36:00,VALID,917.961,VALID,0,VALID,99.6429,VALID,-0.0679233,VALID,16.6906,VALID,131,VALID,1.27697,
2007-09-27, 03:37:00,VALID,917.951,VALID,0,VALID,99.826,VALID,-0.0339617,VALID,16.6416,VALID,135,VALID,1.31861,
2007-09-27, 03:38:00,VALID,917.957,VALID,0,VALID,100,VALID,-0.0849042,VALID,16.6031,VALID,135,VALID,1.49107,
2007-09-27, 03:39:00,VALID,917.954,VALID,0,VALID,100,VALID,-0.0849042,VALID,16.564,VALID,139,VALID,1.38033,
2007-09-27, 03:40:00,VALID,917.933,VALID,0,VALID,100,VALID,-0.101885,VALID,16.5026,VALID,136,VALID,1.5026,
2007-09-27, 03:41:00,VALID,917.949,VALID,0,VALID,100,VALID,-0.0849042,VALID,16.4508,VALID,132,VALID,1.37642,
2007-09-27, 03:42:00,VALID,917.96,VALID,0,VALID,100,VALID,-0.0849042,VALID,16.3827,VALID,135,VALID,1.11399,